Temperature
21 20 19 18 19 20 22 24 25 25 26 26 26 26 25 24 23 23 24 24 24 22 21 20 20 20 20 20 21 21 21 21 21 21 21 20 20 20 20 20 20 20 20 19 20 20 20 20 20
22 20 19 19 20 22 24 25 25 26 26 27 27 26 24 23 23 24 24 24 23 22 21 20 20 20 20 20 21 21 21 21 21 21 21 20 20 20 20 20 20 20 20 20 20 20 20 20 20
22 21 20 19 21 23 25 26 26 26 27 27 26 25 24 23 24 24 25 24 23 22 21 20 20 20 20 21 21 21 21 21 21 21 21 20 20 20 20 20 20 20 20 20 20 20 20 20 20
22 21 21 20 23 24 25 26 26 26 27 27 26 24 24 24 24 25 25 24 23 22 21 20 20 20 21 21 21 21 21 21 21 21 21 20 20 20 20 20 20 20 20 20 20 20 20 20 19
22 22 21 21 23 24 25 26 26 26 26 26 25 24 24 24 25 25 25 24 23 22 21 21 20 21 21 21 21 21 21 21 21 21 20 20 20 20 20 20 20 20 20 20 20 20 20 19 19
23 21 21 22 24 25 25 26 26 26 26 26 25 24 24 24 24 25 24 24 23 22 21 21 20 21 21 21 21 21 21 21 21 20 20 20 20 20 20 20 20 20 20 20 20 20 19 19 19
23 20 22 24 24 24 26 26 26 25 26 26 26 24 24 24 24 24 24 23 23 22 21 21 20 20 20 21 21 21 21 21 20 20 20 20 20 20 20 20 20 20 20 19 19 19 19 19 19
25 20 23 23 24 25 26 26 27 26 26 27 26 25 24 25 24 23 23 22 22 21 21 21 20 20 20 20 20 20 20 20 20 20 20 20 20 20 20 19 19 19 19 19 19 19 19 19 19
25 20 22 23 24 25 26 26 27 27 26 26 26 26 27 26 24 22 22 21 21 21 21 21 20 20 20 20 20 20 20 20 20 20 20 19 19 19 19 19 19 19 19 19 19 19 19 19 19
23 20 22 24 25 25 26 26 27 26 25 26 26 26 26 25 24 22 22 22 21 21 21 20 20 20 20 20 20 20 20 20 19 19 19 19 19 19 19 19 19 19 18 18 18 18 18 18 18
23 22 23 25 27 26 25 26 27 25 24 26 27 26 25 24 23 22 22 22 22 21 20 19 19 19 19 19 19 19 19 19 19 19 19 19 19 19 19 19 19 18 18 18 18 18 18 18 18
23 23 25 26 27 26 26 26 25 25 26 27 26 26 24 23 22 21 21 21 21 20 20 19 19 19 19 19 19 19 19 19 19 19 19 19 19 19 19 19 18 18 18 18 18 18 18 18 18
24 24 25 26 26 26 26 25 25 24 25 25 25 24 23 22 21 20 20 20 20 20 20 20 19 19 19 19 19 19 19 20 20 19 19 19 19 19 18 18 18 18 18 18 18 18 18 17 17
24 24 24 25 26 26 24 22 21 20 22 23 22 21 21 20 20 20 20 19 19 19 19 19 19 20 20 20 20 20 19 19 19 19 19 18 18 18 18 18 18 18 18 18 17 17 17 17 17
24 23 22 24 24 25 24 20 18 18 20 19 18 18 18 19 19 19 19 19 18 18 18 18 18 19 19 19 19 19 19 19 19 19 19 18 18 18 18 18 18 18 18 17 17 17 17 17 17
23 22 23 22 21 22 21 18 18 17 18 17 17 16 17 17 17 17 18 18 18 18 18 18 18 18 18 18 18 18 18 18 18 18 18 18 18 18 18 18 18 18 17 17 17 17 17 17 17
21 22 22 22 20 19 18 17 17 17 17 16 16 16 15 16 16 16 17 17 17 17 17 17 17 17 17 17 17 17 17 18 17 17 17 17 17 17 17 18 18 18 17 17 17 17 17 16 16
22 23 22 21 20 19 17 17 17 16 16 15 15 15 15 15 15 16 16 16 17 17 17 17 17 17 17 17 17 17 17 17 17 17 17 17 17 17 17 17 18 18 17 17 17 17 16 16 16
23 23 22 22 20 18 17 16 16 16 16 15 14 14 15 15 15 15 16 16 16 16 17 17 17 17 17 16 16 16 16 16 16 16 16 17 17 17 17 17 17 18 18 17 17 17 16 16 16
22 23 22 21 20 18 17 16 16 16 15 14 14 14 15 15 15 16 16 16 16 16 17 17 17 17 16 16 16 16 16 16 16 16 16 16 17 17 17 17 18 18 18 18 17 17 17 16 16
24 23 23 21 20 18 17 16 16 16 15 15 15 15 15 15 15 16 16 16 17 17 17 17 17 17 17 16 16 16 16 16 16 16 16 16 16 17 17 17 17 18 18 18 18 17 17 17 16
24 24 24 22 19 18 19 17 16 15 15 15 14 14 15 15 16 16 16 16 17 17 17 17 17 17 17 16 16 16 16 16 16 16 16 16 16 16 17 17 17 17 17 17 17 17 17 17 16
24 22 22 21 19 18 17 17 16 15 15 15 14 14 15 15 16 16 16 16 17 17 17 17 17 17 17 17 16 16 16 15 15 15 15 15 16 16 16 16 16 16 16 17 17 17 17 17 16
23 21 20 17 17 18 18 17 17 15 15 15 15 15 15 16 16 16 16 16 17 17 17 17 16 16 16 16 16 16 15 15 15 15 15 15 15 15 15 15 16 16 16 16 16 16 16 16 16
21 20 19 19 18 18 17 17 17 16 15 15 15 15 15 15 15 16 16 16 16 16 16 16 16 16 16 16 15 15 15 15 14 14 14 14 14 14 14 14 14 14 15 15 15 15 15 16 16
21 20 19 19 18 17 17 17 16 16 16 15 15 15 15 15 15 15 15 15 15 15 15 15 15 15 15 15 15 14 14 14 14 13 13 13 13 13 13 13 13 13 14 14 14 14 15 15 15
21 18 18 17 17 17 17 17 16 15 15 15 15 15 15 15 15 15 15 15 15 15 14 14 14 14 14 14 14 14 13 13 13 13 13 12 12 12 12 12 12 12 13 13 13 13 14 14 14
20 18 16 16 17 18 18 17 15 14 14 14 14 14 15 15 15 15 15 15 14 14 14 14 13 13 13 13 13 13 13 13 13 12 12 12 12 11 11 11 11 11 11 12 12 12 13 13 13
19 18 15 14 15 16 17 16 14 13 13 13 14 15 15 15 15 15 14 14 13 13 13 13 13 13 13 13 13 13 12 12 12 12 12 12 11 11 11 11 11 11 11 11 11 12 12 12 13
19 17 16 17 16 14 15 14 13 13 13 14 14 14 14 14 14 14 13 13 13 13 12 12 12 12 12 12 12 12 12 12 12 12 12 11 11 11 11 10 10 10 10 10 10 11 11 11 12
Wind_Speed
16 14 5 3 1 1 3 4 3 4 4 2 1 2 4 5 5 4 1 12 16 15 17 21 22 21 20 19 18 18 18 18 18 18 18 18 17 16 16 15 14 13 12 11 10 10 9 9 9
11 8 3 2 2 2 4 4 3 2 1 1 2 3 4 1 1 4 5 9 15 15 15 19 22 21 20 19 18 18 17 17 17 17 16 16 16 16 15 14 13 12 11 10 10 9 9 9 8
7 4 3 3 1 3 4 4 1 0 1 1 3 4 2 2 4 6 7 13 14 12 14 19 23 22 20 19 18 17 17 17 16 16 15 15 15 14 14 13 12 11 10 10 9 9 9 8 8
5 2 3 2 4 5 5 4 2 1 1 3 4 3 2 1 6 7 14 16 16 12 13 19 24 22 21 19 18 17 16 16 16 15 15 14 14 13 13 12 11 10 10 9 9 8 8 8 8
3 4 3 2 6 6 5 5 2 1 0 2 4 3 0 3 8 14 17 18 17 13 11 17 23 22 21 19 18 17 16 16 15 14 14 14 13 13 13 12 11 11 10 10 9 9 9 9 9
4 4 3 3 6 6 5 4 2 1 1 2 5 4 1 3 8 13 16 16 15 14 10 15 22 21 20 19 17 16 16 15 15 14 14 13 13 13 12 12 12 12 11 11 11 11 10 10 10
5 4 3 4 5 6 4 2 2 2 2 3 6 5 1 4 5 10 12 12 12 11 9 9 15 18 19 18 16 16 15 15 14 14 14 14 14 13 13 13 13 13 12 12 12 12 12 11 11
5 4 1 3 4 6 3 2 3 4 4 1 5 6 5 6 11 10 10 10 10 9 8 6 9 12 13 14 16 15 15 15 14 14 14 14 14 14 14 14 14 14 14 14 14 14 13 13 13
4 4 3 5 5 6 4 3 3 1 2 2 3 4 5 16 17 13 10 9 9 10 8 7 7 7 9 10 12 14 14 14 14 14 15 15 13 12 13 14 15 15 15 15 15 15 15 15 14
5 4 7 5 5 6 6 6 5 1 3 3 2 2 11 19 17 15 14 14 14 13 11 7 7 6 6 7 6 7 8 9 11 11 11 12 11 12 13 13 16 17 17 17 18 18 17 16 12
5 7 6 6 7 6 5 5 3 5 6 7 6 7 13 15 15 14 12 11 10 9 8 6 5 4 4 2 2 3 5 6 8 10 11 11 10 10 12 10 12 14 15 14 15 15 14 13 11
3 7 6 6 5 4 4 3 3 5 7 2 3 9 11 13 12 11 10 10 9 9 7 6 6 5 4 2 2 3 4 5 7 11 13 11 7 7 8 8 10 11 11 10 10 9 11 12 13
4 5 5 8 10 7 4 2 1 4 6 7 12 13 11 11 9 9 10 10 10 9 8 8 7 6 4 4 4 4 5 6 9 11 13 13 8 9 7 7 9 10 11 9 7 6 7 7 8
5 6 9 10 8 4 3 7 8 10 7 11 15 15 14 13 11 10 9 9 9 8 8 7 7 7 7 6 6 6 6 7 8 9 12 14 12 8 9 8 7 8 10 9 7 4 5 5 4
3 7 9 6 6 3 5 11 12 12 10 16 16 16 16 14 12 10 8 7 6 5 4 4 4 3 4 6 7 6 6 6 6 8 11 13 13 10 8 7 7 7 9 8 5 4 3 3 3
4 4 6 8 11 7 9 8 14 12 12 15 14 14 15 13 12 10 9 8 5 3 1 1 1 3 4 5 6 6 6 6 6 7 9 12 14 13 8 8 8 7 6 4 4 3 3 3 3
6 5 4 7 13 7 10 8 11 11 12 14 13 13 13 12 11 9 8 6 5 3 2 3 3 4 5 4 5 6 5 6 5 5 6 8 10 11 8 8 7 6 4 4 4 3 3 3 3
4 3 3 3 6 13 13 10 10 11 13 13 12 11 10 10 8 7 7 6 4 3 3 3 4 4 4 4 4 3 4 4 3 2 3 5 7 8 7 6 6 5 4 4 4 3 2 2 3
3 2 1 1 4 9 13 11 11 10 11 11 10 9 9 7 5 6 6 5 4 3 4 3 4 5 4 3 2 3 2 3 2 2 2 4 5 5 5 6 6 6 6 6 6 4 3 3 2
4 2 1 4 6 7 9 10 8 10 8 7 8 8 7 6 6 6 6 5 4 5 5 4 5 5 5 3 2 2 2 2 1 2 3 4 4 4 5 6 6 6 5 5 6 4 3 2 3
2 4 4 5 4 5 6 5 5 5 6 7 7 5 5 5 4 5 5 5 5 5 5 5 4 4 4 4 2 2 2 2 3 4 4 4 3 4 4 6 6 6 6 7 7 6 6 5 3
2 2 2 5 6 2 2 2 0 2 5 5 5 6 6 6 5 5 6 6 5 4 4 3 3 4 4 4 4 4 3 3 3 3 3 5 5 3 2 3 4 5 5 6 6 7 5 5 4
2 3 5 4 5 4 4 4 1 1 2 4 4 4 4 5 5 5 5 5 5 5 4 3 2 2 2 3 4 4 3 1 1 2 4 5 5 5 4 2 2 3 4 5 6 6 6 5 5
2 6 6 6 5 4 2 2 2 4 4 4 3 3 4 5 6 6 6 6 7 6 5 5 3 3 2 0 1 2 2 1 0 1 2 3 3 3 5 4 2 3 4 5 6 7 8 7 6
6 6 5 6 5 2 2 1 3 2 3 4 4 5 5 5 6 7 8 8 8 9 8 7 6 6 5 4 3 3 4 3 3 2 1 1 1 1 3 3 3 3 4 5 6 7 8 9 8
3 6 6 3 3 3 3 1 3 1 1 2 2 3 4 6 7 8 9 9 9 10 10 9 8 8 7 6 6 6 5 4 4 5 4 4 3 3 3 2 2 3 4 4 5 6 7 7 9
4 4 4 6 2 1 3 3 3 2 2 1 1 2 5 7 8 9 9 9 9 10 10 9 9 10 10 9 8 8 7 7 7 7 6 5 5 5 5 4 3 3 3 3 3 4 7 7 8
6 6 5 5 2 1 3 2 5 6 5 3 3 3 5 6 7 8 7 8 8 9 9 10 10 10 11 10 9 9 9 9 9 7 8 8 7 6 6 6 5 5 4 4 3 3 4 6 7
6 6 6 5 4 3 2 3 4 4 2 2 3 4 6 7 8 8 7 8 9 9 9 10 10 11 11 12 11 10 10 10 9 9 10 10 8 8 8 7 7 6 6 5 4 4 4 4 5
5 5 3 3 1 2 1 4 3 1 2 2 4 6 7 7 8 8 8 9 9 10 11 11 11 11 12 12 11 12 12 11 11 11 12 11 11 10 10 9 8 8 7 6 6 6 4 4 4
Wind_Direction
146 144 141 151 124 48 283 265 266 329 343 344 115 151 150 156 185 217 57 144 139 149 159 165 162 159 155 152 150 148 146 145 145 147 149 152 155 158 159 160 161 161 159 156 154 151 147 144 141
145 151 160 124 106 9 293 273 334 349 206 354 52 73 72 89 68 114 126 141 141 146 155 160 161 159 157 154 153 152 151 151 151 152 155 157 160 162 164 164 165 164 163 161 160 159 156 153 151
154 181 129 105 167 210 264 277 284 16 121 89 72 65 101 199 153 159 155 141 138 144 153 162 162 160 159 158 157 157 157 158 159 160 161 163 166 168 170 171 171 172 172 172 171 170 166 164 163
147 108 75 76 252 240 241 265 232 282 44 73 103 82 74 76 161 157 144 144 143 146 153 165 163 163 162 162 162 163 164 166 167 168 169 171 173 176 178 179 182 183 184 184 185 184 181 180 179
94 102 64 328 272 270 265 276 255 257 77 80 112 124 77 25 120 137 146 150 150 149 155 167 165 165 166 166 167 168 170 173 176 177 179 180 182 186 187 189 191 194 196 198 198 200 198 198 199
76 80 84 281 281 285 278 281 297 281 193 138 128 137 238 113 133 149 151 152 153 152 153 165 167 168 169 171 172 174 177 180 184 187 189 191 193 196 198 200 202 204 206 209 210 211 213 213 215
129 121 190 246 283 295 288 289 256 254 247 198 149 143 216 153 151 144 143 141 143 147 147 157 166 170 173 175 178 181 184 188 192 196 198 201 204 207 209 211 214 216 219 221 223 224 226 227 228
143 118 213 263 261 278 288 292 260 217 243 189 150 162 207 170 137 125 121 124 133 142 146 147 155 162 168 177 184 188 193 197 201 205 209 212 215 217 220 221 225 227 229 231 233 235 236 237 238
103 83 230 239 234 267 284 282 271 236 234 223 200 191 165 132 131 127 123 125 144 159 159 151 148 152 159 171 189 196 203 208 211 216 219 221 224 228 231 232 233 237 239 240 241 241 242 242 243
104 160 229 234 229 266 284 256 234 238 264 263 250 96 118 131 139 145 153 161 168 174 175 164 154 147 149 175 189 202 210 215 218 220 227 228 225 230 236 241 243 244 246 247 247 244 243 243 241
159 199 241 262 260 263 269 268 202 178 246 237 212 148 131 137 146 154 158 160 166 166 171 165 153 138 145 156 169 206 218 221 224 226 228 233 231 232 237 240 247 252 254 254 252 249 241 235 231
226 245 245 268 275 281 249 244 214 203 237 255 121 123 130 138 145 145 144 148 143 143 150 142 142 143 154 160 208 218 221 224 227 229 227 226 231 231 232 236 239 243 248 252 249 242 238 234 233
248 262 264 258 274 257 248 254 293 327 311 48 81 92 102 104 109 119 127 129 132 138 144 144 140 147 160 181 215 226 231 227 230 230 228 225 227 233 231 233 236 239 242 243 242 239 238 236 236
260 273 281 281 276 250 128 35 30 349 8 65 77 78 80 82 90 98 111 125 129 136 145 150 161 177 183 199 215 223 227 238 237 234 232 229 230 229 230 231 231 235 236 237 237 238 234 234 230
300 306 317 332 333 337 102 42 18 357 56 77 78 80 77 71 71 76 79 93 111 126 143 158 191 226 230 227 236 237 240 237 234 232 233 232 232 231 230 231 234 233 230 229 228 228 219 223 225
12 9 345 345 359 11 83 55 15 9 65 76 77 79 75 64 59 57 59 64 66 83 81 248 256 275 267 257 253 249 249 242 241 240 235 235 234 229 225 227 230 223 214 208 205 195 194 210 216
27 10 341 355 13 39 72 67 23 25 65 73 72 75 74 66 53 46 52 55 50 36 359 310 299 288 291 287 264 258 251 240 238 243 244 243 238 230 223 224 220 204 197 198 199 180 179 193 208
305 327 348 47 42 68 79 70 39 37 62 72 71 71 69 64 48 35 43 43 39 31 9 336 319 322 315 305 301 278 261 257 254 247 251 254 243 229 217 219 202 185 186 190 184 174 180 193 202
244 256 289 109 120 73 78 68 41 34 48 57 61 64 64 59 43 33 35 37 35 28 35 11 4 349 343 332 335 318 303 294 296 282 266 255 245 227 205 214 197 186 190 191 182 169 178 194 176
201 195 127 91 107 102 94 72 44 32 35 35 43 47 50 45 33 25 19 20 26 24 26 27 17 359 356 336 301 275 281 289 316 336 337 302 269 243 216 211 203 193 186 183 183 171 165 181 179
186 187 193 158 102 104 113 65 33 23 25 29 30 28 34 43 28 11 8 4 15 20 19 25 16 10 8 355 332 335 348 352 7 7 351 327 298 251 232 215 207 200 191 193 193 183 173 182 196
297 278 199 152 134 154 165 129 327 355 356 357 356 357 1 2 1 2 352 345 353 353 356 11 14 23 26 32 48 53 41 21 355 343 337 342 351 347 298 242 217 208 205 204 201 194 183 168 183
227 51 73 93 116 82 38 108 228 193 292 289 300 319 331 335 332 329 318 314 316 319 322 322 335 11 28 53 73 81 76 50 328 344 357 360 0 6 3 328 260 238 227 219 208 196 195 188 180
107 72 56 54 72 61 333 130 237 216 211 224 247 275 290 300 304 301 301 303 298 296 292 284 286 288 285 358 115 130 137 157 12 358 355 349 345 355 5 357 331 277 253 236 223 210 204 202 196
59 72 27 6 14 280 315 101 250 248 188 192 214 244 268 278 283 286 288 288 284 283 278 274 271 270 265 254 236 219 208 207 215 234 255 277 304 310 333 351 332 300 270 256 236 219 217 208 206
59 113 145 205 235 284 353 320 293 327 137 158 207 245 269 278 277 275 273 273 278 282 285 284 278 275 272 262 254 246 236 228 230 231 230 235 236 242 251 274 295 307 300 280 251 234 225 215 214
73 66 137 128 127 19 318 315 341 51 28 351 270 272 277 279 279 276 278 282 283 286 286 284 282 281 278 271 266 258 248 238 237 237 233 236 238 244 242 244 255 272 290 296 278 246 236 223 218
77 123 80 87 113 314 317 340 329 333 338 353 352 324 307 302 300 298 297 296 293 289 287 287 279 272 271 269 261 259 249 243 240 238 238 238 239 238 242 248 247 251 258 265 280 273 249 232 226
14 45 78 90 121 144 280 281 337 309 333 18 352 327 311 304 303 302 306 305 304 301 297 294 290 283 280 275 270 266 262 255 247 241 240 238 238 236 235 238 242 245 245 241 239 254 265 250 240
69 56 100 107 54 111 194 265 327 30 42 23 327 310 306 299 299 297 298 302 303 301 298 294 289 285 280 278 276 272 269 264 257 251 246 238 235 234 232 232 234 240 243 236 231 234 239 243 251
Height
1505 1506 1508 1511 1513 1516 1513 1500 1491 1488 1485 1484 1484 1485 1485 1488 1493 1495 1487 1486 1490 1494 1499 1504 1509 1513 1516 1519 1521 1524 1526 1528 1530 1532 1534 1536 1537 1539 1541 1542 1543 1544 1545 1547 1547 1548 1549 1550 1550
1505 1506 1510 1511 1513 1519 1509 1493 1490 1486 1485 1484 1484 1485 1485 1486 1486 1485 1485 1488 1492 1496 1500 1505 1509 1513 1516 1519 1522 1524 1526 1528 1530 1532 1534 1536 1538 1540 1541 1543 1544 1545 1546 1547 1548 1549 1550 1551 1551
1505 1507 1509 1510 1512 1513 1503 1490 1487 1484 1484 1483 1484 1485 1486 1486 1485 1486 1487 1490 1494 1498 1502 1506 1510 1514 1517 1520 1522 1524 1527 1529 1531 1533 1534 1536 1538 1540 1541 1543 1544 1546 1547 1548 1549 1549 1550 1551 1552
1505 1508 1509 1512 1509 1500 1493 1486 1484 1483 1483 1483 1484 1486 1486 1486 1485 1487 1488 1491 1495 1499 1503 1507 1510 1514 1517 1520 1522 1524 1527 1529 1531 1533 1535 1536 1538 1540 1541 1543 1544 1546 1547 1548 1549 1550 1551 1552 1553
1505 1506 1510 1515 1507 1496 1488 1485 1483 1483 1482 1483 1484 1485 1485 1486 1486 1488 1490 1492 1495 1499 1503 1507 1511 1515 1518 1520 1523 1525 1527 1529 1531 1533 1535 1537 1538 1540 1541 1543 1544 1546 1547 1548 1549 1550 1551 1552 1553
1504 1505 1516 1517 1505 1493 1487 1484 1483 1483 1482 1482 1483 1484 1485 1486 1487 1490 1492 1494 1497 1500 1504 1508 1512 1516 1519 1521 1524 1526 1528 1530 1532 1534 1535 1537 1539 1540 1542 1543 1544 1545 1546 1547 1548 1549 1550 1551 1552
1503 1507 1512 1508 1505 1496 1487 1484 1483 1483 1482 1482 1482 1483 1484 1486 1488 1491 1493 1495 1498 1502 1505 1509 1513 1516 1519 1522 1525 1527 1529 1530 1532 1534 1535 1537 1539 1540 1541 1542 1543 1544 1545 1546 1547 1547 1548 1549 1550
1500 1505 1507 1508 1504 1496 1487 1484 1483 1482 1482 1482 1482 1482 1482 1485 1487 1490 1493 1496 1500 1503 1507 1510 1513 1516 1519 1522 1524 1526 1528 1530 1532 1534 1535 1537 1538 1539 1540 1541 1542 1543 1543 1544 1545 1545 1546 1547 1548
1499 1509 1513 1505 1500 1493 1486 1485 1483 1481 1481 1480 1480 1481 1482 1483 1486 1490 1493 1497 1500 1503 1506 1509 1513 1516 1519 1521 1524 1526 1528 1529 1531 1533 1534 1536 1537 1538 1539 1540 1540 1541 1541 1542 1542 1543 1544 1544 1545
1499 1511 1504 1495 1491 1489 1485 1483 1482 1481 1480 1479 1480 1480 1481 1483 1486 1489 1492 1494 1498 1501 1505 1509 1512 1515 1518 1521 1523 1525 1526 1528 1529 1531 1532 1533 1534 1536 1537 1537 1538 1539 1539 1540 1540 1541 1541 1541 1542
1497 1501 1494 1490 1488 1486 1484 1482 1481 1481 1481 1478 1477 1479 1480 1482 1485 1488 1491 1495 1498 1502 1506 1509 1512 1515 1518 1520 1522 1523 1524 1526 1527 1528 1530 1531 1531 1533 1533 1534 1535 1536 1536 1537 1537 1538 1538 1538 1539
1496 1493 1491 1488 1486 1484 1483 1481 1481 1480 1480 1478 1478 1479 1481 1483 1486 1491 1494 1497 1500 1502 1505 1509 1512 1514 1517 1519 1521 1521 1521 1522 1523 1525 1526 1527 1528 1529 1530 1531 1532 1532 1533 1534 1534 1534 1534 1535 1536
1493 1491 1488 1485 1483 1481 1481 1482 1483 1484 1482 1480 1479 1480 1482 1486 1490 1494 1497 1500 1502 1503 1506 1508 1511 1513 1514 1516 1517 1518 1518 1518 1519 1519 1520 1522 1523 1524 1526 1526 1528 1528 1529 1530 1530 1530 1531 1531 1532
1490 1488 1485 1481 1479 1478 1481 1486 1488 1489 1484 1481 1481 1483 1486 1489 1492 1495 1497 1500 1502 1504 1506 1508 1509 1510 1511 1511 1511 1511 1512 1513 1514 1514 1515 1517 1518 1520 1521 1522 1523 1524 1525 1525 1526 1526 1526 1527 1527
1489 1488 1484 1481 1479 1478 1480 1493 1498 1494 1487 1484 1485 1486 1488 1491 1494 1496 1498 1500 1503 1505 1506 1507 1509 1509 1508 1507 1506 1506 1506 1507 1508 1509 1510 1511 1513 1515 1517 1517 1518 1519 1520 1521 1521 1521 1522 1522 1523
1489 1493 1495 1487 1483 1482 1487 1507 1504 1498 1492 1490 1491 1491 1492 1494 1496 1498 1499 1501 1503 1504 1506 1506 1507 1506 1505 1503 1502 1500 1500 1499 1500 1501 1503 1506 1507 1509 1512 1513 1513 1515 1516 1516 1516 1517 1517 1518 1518
1499 1503 1500 1495 1490 1488 1495 1509 1507 1502 1497 1496 1496 1496 1497 1498 1499 1499 1500 1501 1502 1503 1504 1504 1503 1503 1502 1499 1496 1494 1493 1493 1493 1494 1496 1498 1501 1504 1506 1508 1509 1511 1511 1512 1513 1513 1513 1514 1514
1504 1502 1501 1502 1500 1497 1503 1511 1509 1506 1502 1500 1500 1500 1500 1500 1501 1501 1500 1501 1501 1501 1501 1501 1500 1499 1497 1495 1493 1491 1489 1488 1488 1489 1491 1493 1496 1499 1501 1504 1505 1506 1507 1508 1509 1509 1510 1510 1510
1495 1498 1501 1499 1499 1504 1510 1512 1512 1509 1506 1504 1503 1502 1502 1502 1503 1502 1502 1501 1501 1501 1500 1499 1498 1497 1495 1493 1491 1490 1487 1486 1486 1486 1488 1489 1492 1495 1498 1501 1502 1503 1504 1505 1505 1506 1506 1506 1506
1494 1498 1500 1502 1501 1506 1513 1515 1514 1512 1510 1509 1507 1506 1505 1505 1504 1504 1503 1503 1501 1500 1499 1499 1498 1497 1495 1493 1491 1490 1488 1486 1486 1486 1486 1487 1489 1492 1495 1497 1498 1500 1501 1501 1502 1502 1502 1502 1503
1491 1494 1494 1499 1504 1507 1512 1519 1518 1516 1514 1512 1510 1509 1508 1507 1506 1506 1505 1504 1503 1501 1500 1499 1498 1496 1495 1493 1491 1490 1488 1486 1485 1484 1485 1486 1487 1488 1491 1493 1494 1496 1497 1498 1498 1498 1499 1499 1500
1493 1485 1487 1492 1505 1515 1512 1526 1523 1519 1518 1515 1514 1512 1511 1510 1509 1508 1507 1506 1505 1503 1502 1500 1499 1497 1494 1492 1490 1489 1487 1485 1484 1483 1483 1484 1484 1485 1486 1488 1490 1491 1493 1494 1494 1495 1495 1496 1496
1486 1484 1488 1494 1503 1515 1517 1524 1526 1521 1521 1518 1516 1514 1513 1512 1511 1510 1509 1508 1507 1505 1503 1502 1500 1497 1494 1492 1490 1488 1486 1485 1483 1482 1481 1480 1480 1480 1481 1482 1484 1485 1487 1488 1489 1490 1491 1492 1492
1483 1489 1495 1504 1511 1524 1521 1524 1526 1522 1518 1517 1516 1515 1514 1513 1513 1512 1511 1509 1508 1506 1504 1502 1499 1497 1494 1491 1489 1487 1485 1483 1481 1479 1478 1477 1477 1477 1477 1477 1478 1479 1480 1482 1484 1485 1486 1487 1488
1488 1502 1520 1522 1530 1528 1520 1523 1524 1515 1514 1515 1515 1515 1515 1514 1513 1512 1511 1509 1508 1506 1503 1500 1498 1495 1492 1490 1487 1485 1483 1480 1478 1476 1475 1474 1473 1472 1472 1472 1472 1473 1474 1475 1477 1478 1480 1481 1483
1493 1501 1523 1530 1533 1530 1523 1525 1521 1514 1514 1514 1515 1515 1515 1514 1513 1511 1510 1508 1505 1503 1500 1498 1495 1492 1489 1487 1484 1482 1479 1477 1475 1473 1472 1470 1469 1468 1467 1467 1467 1467 1467 1468 1469 1471 1473 1475 1476
1495 1505 1507 1522 1526 1532 1528 1522 1517 1515 1515 1515 1515 1514 1514 1513 1511 1509 1507 1505 1502 1499 1496 1493 1490 1487 1484 1482 1479 1477 1475 1473 1471 1469 1467 1466 1464 1463 1462 1461 1461 1461 1461 1461 1461 1463 1465 1467 1469
1496 1503 1514 1523 1532 1535 1529 1527 1530 1521 1519 1516 1515 1514 1513 1511 1509 1507 1504 1501 1498 1495 1492 1489 1485 1482 1479 1476 1474 1471 1469 1467 1465 1463 1462 1460 1459 1458 1457 1456 1455 1455 1455 1455 1455 1456 1457 1459 1461
1504 1508 1518 1527 1528 1536 1538 1536 1526 1523 1519 1517 1516 1514 1512 1510 1507 1504 1501 1498 1495 1491 1488 1484 1481 1477 1474 1471 1468 1465 1462 1460 1458 1456 1455 1454 1453 1452 1451 1451 1450 1449 1449 1449 1449 1449 1450 1452 1454
1505 1511 1517 1526 1531 1535 1539 1539 1524 1521 1519 1517 1515 1513 1510 1508 1504 1501 1498 1495 1491 1487 1483 1479 1475 1471 1468 1464 1460 1457 1454 1452 1449 1447 1447 1446 1445 1445 1445 1444 1444 1443 1443 1442 1442 1442 1443 1445 1446